Regional Weather Roundup
Issued by NWS

Home | Current Version | Previous Version | Graphics & Text | Print | Product List | Glossary On
Versions: 1 2 3 4 5 6 7 8 9 10 11 12 13 14 15 16 17 18 19 20 21 22 23 24 25 26 27 28 29 30 31 32 33 34 35 36 37 38 39 40 41 42 43 44 45 46 47 48 49 50
000
ASUS43 KDMX 281807
RWRIA

WEATHER ROUNDUP FOR IOWA
NATIONAL WEATHER SERVICE DES MOINES IA
1200 PM CST SAT FEB 28 2015

NOTE: "FAIR" INDICATES FEW OR NO CLOUDS BELOW 12,000 FEET WITH NO
SIGNIFICANT WEATHER AND/OR OBSTRUCTIONS TO VISIBILITY.

* - THESE STATIONS ARE NOT NWS STATIONS...THUS NOT UNDER NWS
QUALITY CONTROL.  THEY ALSO DO NOT REPORT WEATHER SUCH
AS PRECIPITATION OR FOG.

IAZ001>003-012>014-020>022-031>034-043>046-281900-
   NORTHWEST IOWA

CITY           SKY/WX    TMP DP  RH WIND       PRES   REMARKS
CARROLL *      SUNNY     19   9  63 S14       30.45F WCI   6
CHEROKEE *     SUNNY     18   7  62 S14       30.42F WCI   4
DENISON *      MOSUNNY   19   9  63 S12       30.43F WCI   7
LE MARS *      SUNNY     19  10  68 S14G21    30.41F WCI   6
ORANGE CITY *  SUNNY     19  10  68 S18G24    30.37F WCI   4
SHELDON *      SUNNY     18   7  62 S17G26    30.37F WCI   2
SIOUX CITY     PTSUNNY   23  12  62 S18       30.42F WCI   9
6HR MIN TEMP:   2; 6HR MAX TEMP:  24;

SPENCER        MOSUNNY   17   7  64 S15       30.42F WCI   2
6HR MIN TEMP:  -4; 6HR MAX TEMP:  17;

STORM LAKE *   SUNNY     16   7  67 S13       30.42F WCI   2
$$

IAZ055>058-069>071-079>083-090>094-281900-
   SOUTHWEST IOWA

CITY           SKY/WX    TMP DP  RH WIND       PRES   REMARKS
ATLANTIC *     MOSUNNY   19   9  63 S15       30.47S WCI   5
AUDUBON *      SUNNY     21   9  58 S12       30.46F WCI   9
CLARINDA *     CLOUDY    23  10  58 S9G17     30.50F WCI  13
COUNCIL BLFS * PTSUNNY   19  10  68 S10       30.44F WCI   8
CRESTON *      MOSUNNY   23   9  54 S10G20    30.47F WCI  12
HARLAN  *      PTSUNNY   19  10  68 S16       30.49F WCI   5
LAMONI         MOSUNNY   21  10  62 S8        30.48F WCI  11
6HR MIN TEMP:   6; 6HR MAX TEMP:  21;

RED OAK *      PTSUNNY   23  10  58 S13       30.48F WCI  11
SHENANDOAH *   PTSUNNY   23  12  63 S13G18    30.48F WCI  11
$$

IAZ047>049-059>061-072>074-084-281900-
   CENTRAL IOWA

CITY           SKY/WX    TMP DP  RH WIND       PRES   REMARKS
AMES           SUNNY     15   4  61 SE7       30.52F WCI   5
6HR MIN TEMP:  -9; 6HR MAX TEMP:  16;

ANKENY *       MOSUNNY   18   5  57 SE8       30.53F WCI   7
CHARITON *     SUNNY     21   9  58 S9        30.51F WCI  11
DES MOINES     PTSUNNY   20   7  57 S8        30.52F WCI  10
6HR MIN TEMP:   2; 6HR MAX TEMP:  20;

GRINNELL*      SUNNY     16   5  62 SE7       30.54F WCI   6
KNOXVILLE *    SUNNY     19   5  53 SE7       30.51F WCI  10
MARSHALLTOWN   SUNNY     11   1  64 SE9       30.53F WCI  -2
6HR MIN TEMP: -13; 6HR MAX TEMP:  11;

PELLA *        MOSUNNY   19   9  63 SE5       30.55F WCI  13
PERRY *          N/A     21  10  63 S7        30.49F WCI  13
$$

IAZ004>006-015-016-023>025-035-036-281900-
   NORTH CENTRAL IOWA

CITY           SKY/WX    TMP DP  RH WIND       PRES   REMARKS
ALGONA *       SUNNY     14   7  73 S16       30.47F WCI  -2
CLARION *      SUNNY     14   7  73 S15       30.49F WCI  -1
ESTHERVILLE    SUNNY     14   7  73 S20       30.43F WCI  -3
6HR MIN TEMP: -11; 6HR MAX TEMP:  14;

FORT DODGE *   SUNNY     18   5  57 S14G20    30.49F WCI   4
MASON CITY     SUNNY      6   0  76 S13       30.52F WCI -10
6HR MIN TEMP: -20; 6HR MAX TEMP:   6;

FOREST CITY *  SUNNY     12   7  79 S13       30.49F WCI  -3
IOWA FALLS *     N/A     10   3  72 SE10      30.52F WCI  -3
$$

IAZ007>011-017>019-026>030-037>042-050>054-066-281900-
   NORTHEAST IOWA

CITY           SKY/WX    TMP DP  RH WIND       PRES   REMARKS
CEDAR RAPIDS   SUNNY     13   1  59 SE9       30.58F WCI   1
6HR MIN TEMP: -13; 6HR MAX TEMP:  14;

CHARLES CITY * SUNNY      9   0  66 S9        30.55F WCI  -5
CLINTON *      SUNNY     12   1  62 S10       30.67F WCI  -1
DECORAH *      SUNNY      9  -4  56 VRB7      30.56F WCI  -3
DUBUQUE        SUNNY      9   0  67 S12       30.59F WCI  -6
6HR MIN TEMP: -17; 6HR MAX TEMP:   9;

MONTICELLO *   SUNNY     10   1  67 SE8       30.62S WCI  -1
OELWEIN *      SUNNY      7   3  85 SE8       30.58F WCI  -6
WATERLOO       SUNNY     11   0  61 S13       30.57F WCI  -4
6HR MIN TEMP: -22; 6HR MAX TEMP:  11; 6HR PCP: TRACE;

$$

IAZ064-065-067-068-078-281900-
   EAST CENTRAL IOWA

CITY           SKY/WX    TMP DP  RH WIND       PRES   REMARKS
DAVENPORT      SUNNY     15   0  51 SE13      30.62F WCI   1
6HR MIN TEMP: -10; 6HR MAX TEMP:  15;

IOWA CITY      SUNNY     12   2  64 E8        30.63F WCI   0
6HR MIN TEMP: -10; 6HR MAX TEMP:  12;

MT. PLEASANT * SUNNY     20   3  46 SE7       30.60F WCI  12
MUSCATINE *    SUNNY     16   1  53 SE8       30.64F WCI   5
QUAD CITIES    SUNNY     15   0  51 SE10      30.63F WCI   2
6HR MIN TEMP: -15; 6HR MAX TEMP:  15;

$$

IAZ062-063-075>077-085>089-095>099-281900-
   SOUTHEAST IOWA

CITY           SKY/WX    TMP DP  RH WIND       PRES   REMARKS
BURLINGTON     SUNNY     18   4  54 SE6       30.60F WCI  10
6HR MIN TEMP:   2; 6HR MAX TEMP:  18;

FAIRFIELD *    MOSUNNY   19   3  49 SE10      30.57F WCI   8
FORT MADISON * SUNNY     18   3  53 SE9       30.60F WCI   6
KEOKUK *       SUNNY     19   7  58 E9        30.58F WCI   9
OSKALOOSA *      N/A     19   7  61 SE8       30.55F WCI   8
CENTERVILLE *  SUNNY     23  10  58 S12       30.53F WCI  12
OTTUMWA        MOSUNNY   20   6  55 SE9       30.55F WCI   9
6HR MIN TEMP:  -4; 6HR MAX TEMP:  20;

WASHINGTON *   SUNNY     16   5  62 SE10      30.59F WCI   3
$$

ABBREVIATIONS USED IN REMARKS
   TC - TEMPERATURES IN CELSIUS
  WCI - WIND CHILL INDEX
   HX - HEAT INDEX
  VSB - VISIBILITY
$$



USA.gov is the U.S. government's official web portal to all federal, state and local government web resources and services.